Tracking 28790 objects as of 19-Apr-2024
HD Live streaming from Space Station
objects crossing your sky now

STARLINK-1816

Track STARLINK-1816 now!
10-day predictions
STARLINK-1816 is classified as:


NORAD ID: 46714
Int'l Code: 2020-073AW
Perigee: 553.2 km
Apogee: 555.6 km
Inclination: 53.1 °
Period: 95.6 minutes
Semi major axis: 6925 km
RCS: Unknown
Launch date: October 18, 2020
Source: United States (US)
Launch site: AIR FORCE EASTERN TEST RANGE (AFETR)
Your satellite tracking list
Your tracking list is empty




NASA's NSSDC Master Catalog

Two Line Element Set (TLE):
1 46714U 20073AW  24110.18780364 -.00001378  00000-0 -73622-4 0  9994
2 46714  53.0532  96.9048 0001743 114.2860 245.8311 15.06396880193682
Source of the keplerian elements: AFSPC